Regional Weather Roundup
Issued by NWS

Home | Current Version | Previous Version | Graphics & Text | Print | Product List | Glossary On
Versions: 1 2 3 4 5 6 7 8 9 10 11 12 13 14 15 16 17 18 19 20 21 22 23 24 25 26 27 28 29 30 31 32 33 34 35 36 37 38 39 40 41 42 43 44 45 46 47 48 49 50
000
ASUS43 KDTX 181001
RWRMI
MICHIGAN HOURLY REGIONAL WEATHER ROUNDUP
NATIONAL WEATHER SERVICE DETROIT/PONTIAC MI
600 AM EDT FRI AUG 18 2017

NOTE: "FAIR" INDICATES FEW OR NO CLOUDS BELOW 12,000 FEET WITH NO
SIGNIFICANT WEATHER AND/OR OBSTRUCTION TO VISIBILITY.

MIZ047>049-052>055-059>063-066>070-074>076-081>083-181100-
SOUTHEAST LOWER MICHIGAN

CITY           SKY/WX    TMP DP  RH WIND       PRES   REMARKS
ADRIAN         CLEAR     66  64  93 SW5       29.76S
ALMA           CLOUDY    66  63  91 SW9G22    29.68R
ANN ARBOR      CLEAR     67  62  84 SW8       29.73R
BAD AXE        MOCLDY    68  65  90 SW6       29.65S
CARO           MOCLDY    68  64  85 SW13      29.66R
DETROIT CITY   CLEAR     70  65  84 SW10      29.72R
DETROIT        PTCLDY    69  66  90 SW13      29.74R
FLINT          MOCLDY    68  63  84 SW9       29.69R
GROSSE ILE     CLEAR     70  66  86 W9        29.73R
HILLSDALE      MOCLDY    66  63  88 SW7       29.76R
HOWELL         PTCLDY    67  62  83 SW10      29.72R

CITY           SKY/WX    TMP DP  RH WIND       PRES   REMARKS
JACKSON          N/A     68  61  78 SW9       29.74R
LAMBERTVILLE   CLEAR     69  65  89 SW3       29.75S
LANSING        MOCLDY    68  61  78 W9        29.71R
LAPEER         MOCLDY    70  64  83 SW15      29.69R
MASON          MOCLDY    69  62  77 W10       29.72R
MONROE         CLEAR     68  65  91 SW6       29.74R
MT. CLEMENS    CLEAR     71  67  88 SW9G20    29.70R
PONTIAC        MOCLDY    70  63  78 SW13      29.71R
PORT HOPE        N/A     69  65  86 VRB6      29.62S
PORT HURON     PTCLDY    70  66  88 SW3       29.70R
TRI CITIES     CLOUDY    68  66  93 SW13      29.66R
MIDLAND        CLOUDY    68  65  91 SW10      29.64R
TROY           CLEAR     71  65  82 SW9       29.73R
SAGINAW HB     CLOUDY    66  63  88 SW13G30   29.66R FOG
$$
MIZ043>046-050>051-056>058-064>065-071>073-077>080-181100-
SOUTHWEST LOWER MICHIGAN

CITY           SKY/WX    TMP DP  RH WIND       PRES   REMARKS
BATTLE CREEK   CLOUDY    68  64  87 W14       29.75R
BENTON HARBOR  CLOUDY    70  63  78 W15G23    29.76R
BIG RAPIDS     CLOUDY    64  60  87 W12G21    29.66R
COLDWATER      MOCLDY    66  66 100 SW8       29.77R
FREMONT        CLOUDY    66  62  88 W15       29.69R
HOLLAND        CLOUDY    69  61  75 W14G22    29.73R
GRAND RAPIDS   CLOUDY    68  63  84 W18       29.71R
IONIA          DRIZZLE   66  64  93 W12       29.70R
KALAMAZOO      CLOUDY    69  62  78 SW9       29.75R
LUDINGTON      CLOUDY    66  59  78 W12G18    29.66R
MARSHALL       CLOUDY    66  65  97 SW7       29.74S
MOUNT PLEASANT CLOUDY    69  62  80 W9        29.64S
MUSKEGON       CLOUDY    69  62  78 W18G24    29.71R
SOUTH HAVEN    CLOUDY    70  63  76 W12G17    29.75R
$$
MIZ016>042-181100-
NORTHERN LOWER MICHIGAN

CITY           SKY/WX    TMP DP  RH WIND       PRES   REMARKS
ALPENA         CLOUDY    68  67  96 S9        29.57R
BEAVER ISLAND  CLOUDY    65  64  97 W8        29.55R
BELLAIRE       RAIN      65  62  91 SW7       29.59R
CADILLAC       DRIZZLE   64  61  90 W13       29.64R
CHARLEVOIX     CLOUDY    65  65 100 W17       29.58R
FRANKFORT      CLOUDY    67  63  87 W14G21    29.62R
GAYLORD        LGT RAIN  65  63  93 W16G23    29.58R FOG
GRAYLING       CLOUDY    65  63  93 SW7       29.60S FOG
HARBOR SPRINGS CLOUDY    66  64  94 W13G22    29.54R
HOUGHTON LAKE  CLOUDY    66  63  90 SW13      29.62R
MANISTEE       CLOUDY    66  61  84 W17       29.64R
OSCODA         MOCLDY    68  66  92 SW12      29.60R
PELLSTON       CLOUDY    68  66  93 W9        29.53R
ROGERS CITY    CLOUDY    67  65  91 SW7       29.55R
TRAVERSE CITY  CLOUDY    66  62  87 W8        29.58R
$$
MIZ007>008-015-181100-
EASTERN UPPER MICHIGAN

CITY           SKY/WX    TMP DP  RH WIND       PRES   REMARKS
KINROSS        LGT RAIN  67  67 100 S5        29.50S FOG
MACKINAC ISLAN CLOUDY    67  67 100 W12G18    29.51R FOG
NEWBERRY       CLOUDY    63  62  97 W13G20    29.51R FOG
S. S. MARIE    CLOUDY    66  65  96 CALM      29.48F FOG
MUNISING         N/A     61  32  33 NW15G23   29.56R
$$
MIZ004>006-011>014-085-181100-
CENTRAL UPPER MICHIGAN

CITY           SKY/WX    TMP DP  RH WIND       PRES   REMARKS
MANISTIQUE     CLOUDY    62  56  81 NW9       29.54R
MENOMINEE      CLOUDY    65  59  81 NW8       29.63R
SAWYER-GWINN   CLOUDY    60  57  92 NW12      29.60R
$$
MIZ001>003-009>011-084-181100-
WESTERN UPPER MICHIGAN

CITY           SKY/WX    TMP DP  RH WIND       PRES   REMARKS
IRON MOUNTAIN  CLOUDY    63  57  81 NW16G23   29.63R
HOUGHTON       LGT RAIN  58  56  93 NW13      29.66R FOG
COPPER HARBOR    N/A     56  55  97 N13       29.63R
IRONWOOD       LGT RAIN  60  58  92 NW10      29.78R FOG
$$

ABBREVIATIONS USED IN REMARKS
   TC - TEMPERATURE IN CELSIUS
  WCI - WIND CHILL INDEX
   HX - HEAT INDEX
  VSB - VISIBILITY





USA.gov is the U.S. government's official web portal to all federal, state and local government web resources and services.